Location: Austin
(30.3000°N, 97.7500°W)
Time: 23:43:36
(UTC-05:00)

Cosmos 44 Rocket - Pass Details

Date: 06 May 2026
Orbit: 631 x 746 km, 65.1° (Epoch: 13 May)

Event Time Altitude Azimuth Distance (km) Brightness Sun altitude
Rises 22:15:01 0° 210° (SSW) 3,048 6.5 -23.9°
Reaches altitude 10° 22:17:19 10° 212° (SSW) 2,153 5.7 -24.3°
Maximum altitude 22:22:14 74° 297° (WNW) 748 3.5 -25.1°
Drops below altitude 10° 22:27:20 10° 23° (NNE) 2,231 6.1 -26.0°
Sets 22:29:45 0° 25° (NNE) 3,168 6.9 -26.4°
